DAL204 KJFK-ESSA

Flight info

Callsign DAL204
Flight time N/A
Altitude 37000
Route GREKI JUDDS MARTN ANCER YBC N875B DORYY/M082F390 59N050W 62N040W 6330N03000W 6330N02000W 63N010W IPTON/N0479F390 MASEV Z183 LEGPO/N0429F270 Z183 ELTOK
Aircraft A332/H-VGDW/C

Departure

Time 2026-05-05 03:00
Airport John F. Kennedy International Airport (KJFK)

Arrival

Time N/A
Airport Stockholm-Arlanda Airport (ESSA)
Time Latitude Longitude Altitude Speed Heading
2026-05-05 02:30 40.63782 -73.78024 27 ft 0 kts 262°
2026-05-05 02:44 40.63782 -73.78023 27 ft 1 kts 262°
2026-05-05 02:45 40.63785 -73.77992 27 ft 4 kts 262°
2026-05-05 02:45 40.63789 -73.77958 27 ft 4 kts 246°
2026-05-05 02:45 40.63804 -73.77933 27 ft 4 kts 205°
2026-05-05 02:45 40.63830 -73.77925 27 ft 4 kts 178°
2026-05-05 02:46 40.63844 -73.77926 27 ft 2 kts 173°
2026-05-05 02:46 40.63818 -73.77922 27 ft 4 kts 173°
2026-05-05 02:46 40.63811 -73.77921 27 ft 0 kts 173°
2026-05-05 02:52 40.63806 -73.77920 27 ft 2 kts 173°
2026-05-05 02:52 40.63780 -73.77916 27 ft 5 kts 173°
2026-05-05 02:52 40.63736 -73.77909 27 ft 8 kts 173°
2026-05-05 02:52 40.63680 -73.77900 27 ft 9 kts 173°
2026-05-05 02:53 40.63623 -73.77891 27 ft 8 kts 173°
2026-05-05 02:53 40.63574 -73.77861 26 ft 8 kts 131°
2026-05-05 02:53 40.63537 -73.77788 31 ft 11 kts 121°
2026-05-05 02:53 40.63515 -73.77742 28 ft 5 kts 121°
2026-05-05 02:54 40.63518 -73.77706 29 ft 5 kts 59°
2026-05-05 02:54 40.63574 -73.77654 25 ft 14 kts 31°
2026-05-05 02:54 40.63667 -73.77581 26 ft 16 kts 31°
2026-05-05 02:54 40.63773 -73.77499 23 ft 19 kts 31°
2026-05-05 02:55 40.63883 -73.77413 28 ft 18 kts 31°
2026-05-05 02:55 40.63995 -73.77325 30 ft 19 kts 31°
2026-05-05 02:55 40.64104 -73.77241 28 ft 17 kts 31°
2026-05-05 02:55 40.64206 -73.77160 28 ft 19 kts 31°
2026-05-05 02:56 40.64325 -73.77067 26 ft 20 kts 31°
2026-05-05 02:56 40.64452 -73.76991 26 ft 21 kts
2026-05-05 02:56 40.64511 -73.76983 23 ft 8 kts 13°
2026-05-05 02:56 40.64572 -73.76938 24 ft 11 kts 32°
2026-05-05 02:57 40.64656 -73.76871 25 ft 18 kts 31°
2026-05-05 02:57 40.64765 -73.76786 24 ft 18 kts 31°
2026-05-05 02:57 40.64871 -73.76704 27 ft 17 kts 30°
2026-05-05 02:57 40.64979 -73.76619 29 ft 18 kts 31°
2026-05-05 02:58 40.65073 -73.76546 28 ft 9 kts 31°
2026-05-05 02:58 40.65101 -73.76493 26 ft 6 kts 91°
2026-05-05 02:58 40.65082 -73.76438 29 ft 8 kts 120°
2026-05-05 02:58 40.65051 -73.76371 26 ft 9 kts 124°
2026-05-05 02:59 40.65023 -73.76361 30 ft 3 kts 191°
2026-05-05 02:59 40.64989 -73.76383 29 ft 10 kts 211°
2026-05-05 02:59 40.64785 -73.76542 28 ft 63 kts 210°
2026-05-05 02:59 40.64248 -73.76961 31 ft 114 kts 211°
2026-05-05 03:00 40.63430 -73.77599 30 ft 157 kts 210°
2026-05-05 03:00 40.62463 -73.78373 475 ft 162 kts 210°
2026-05-05 03:00 40.61512 -73.79142 1135 ft 158 kts 211°
2026-05-05 03:00 40.60611 -73.79895 1915 ft 149 kts 213°
2026-05-05 03:01 40.59696 -73.80648 2209 ft 162 kts 212°
2026-05-05 03:01 40.58688 -73.81436 2496 ft 174 kts 212°
2026-05-05 03:01 40.57548 -73.82085 2870 ft 188 kts 191°
2026-05-05 03:01 40.56206 -73.81672 3195 ft 215 kts 154°
2026-05-05 03:02 40.55106 -73.80136 3393 ft 250 kts 122°
2026-05-05 03:02 40.54693 -73.77811 3690 ft 276 kts 91°
2026-05-05 03:02 40.55092 -73.75278 4117 ft 293 kts 67°
2026-05-05 03:02 40.56146 -73.72957 4761 ft 296 kts 52°
2026-05-05 03:03 40.57480 -73.70922 5549 ft 292 kts 39°
2026-05-05 03:03 40.59128 -73.69410 6358 ft 287 kts 25°
2026-05-05 03:03 40.60922 -73.68292 7112 ft 286 kts 19°
2026-05-05 03:03 40.62773 -73.67306 7790 ft 289 kts 16°
2026-05-05 03:04 40.64671 -73.66417 8511 ft 290 kts 14°
2026-05-05 03:04 40.66590 -73.65592 9244 ft 291 kts 13°
2026-05-05 03:04 40.68528 -73.64794 9962 ft 293 kts 14°
2026-05-05 03:04 40.70501 -73.63994 10457 ft 303 kts 13°
2026-05-05 03:05 40.72573 -73.63160 10715 ft 320 kts 13°
2026-05-05 03:05 40.74762 -73.62274 10967 ft 337 kts 14°
2026-05-05 03:05 40.77059 -73.61334 11220 ft 354 kts 14°
2026-05-05 03:05 40.79456 -73.60343 11427 ft 368 kts 14°
2026-05-05 03:06 40.81943 -73.59306 11777 ft 379 kts 14°
2026-05-05 03:06 40.84479 -73.58243 12241 ft 385 kts 14°
2026-05-05 03:06 40.87041 -73.57166 12765 ft 389 kts 14°
2026-05-05 03:06 40.89634 -73.56077 13325 ft 392 kts 14°
2026-05-05 03:07 40.91360 -73.55352 13677 ft 395 kts 14°
2026-05-05 03:07 40.93991 -73.54248 14159 ft 398 kts 14°
2026-05-05 03:07 40.96643 -73.53134 14660 ft 401 kts 14°
2026-05-05 03:07 40.99307 -73.52016 15153 ft 403 kts 14°
2026-05-05 03:08 41.01991 -73.50889 15653 ft 406 kts 13°
2026-05-05 03:08 41.04696 -73.49752 16131 ft 409 kts 13°
2026-05-05 03:08 41.07413 -73.48610 16604 ft 412 kts 13°
2026-05-05 03:08 41.10151 -73.47458 17089 ft 414 kts 13°
2026-05-05 03:09 41.12907 -73.46297 17557 ft 417 kts 14°
2026-05-05 03:09 41.15679 -73.45129 18038 ft 419 kts 14°
2026-05-05 03:09 41.18474 -73.43949 18464 ft 422 kts 14°
2026-05-05 03:09 41.21274 -73.42766 18876 ft 424 kts 13°
2026-05-05 03:10 41.24098 -73.41572 19288 ft 427 kts 13°
2026-05-05 03:10 41.26932 -73.40372 19721 ft 428 kts 13°
2026-05-05 03:10 41.29778 -73.39167 20127 ft 430 kts 13°
2026-05-05 03:10 41.32632 -73.37957 20551 ft 431 kts 14°
2026-05-05 03:11 41.35460 -73.36756 20947 ft 433 kts 14°
2026-05-05 03:11 41.38373 -73.35519 21354 ft 435 kts 14°
2026-05-05 03:11 41.41223 -73.34307 21738 ft 437 kts 13°
2026-05-05 03:11 41.44163 -73.33048 22112 ft 440 kts 15°
2026-05-05 03:12 41.46989 -73.31399 22510 ft 447 kts 25°
2026-05-05 03:12 41.49540 -73.29081 22884 ft 454 kts 35°
2026-05-05 03:12 41.51972 -73.26291 23273 ft 457 kts 39°
2026-05-05 03:12 41.54289 -73.23351 23611 ft 460 kts 41°
2026-05-05 03:13 41.56527 -73.20358 23929 ft 463 kts 41°
2026-05-05 03:13 41.58900 -73.17470 24206 ft 461 kts 34°
2026-05-05 03:13 41.61541 -73.15071 24488 ft 458 kts 25°
2026-05-05 03:13 41.64424 -73.13325 24784 ft 454 kts 14°
2026-05-05 03:14 41.67468 -73.12329 25083 ft 449 kts
2026-05-05 03:14 41.70572 -73.12114 25364 ft 445 kts 354°
2026-05-05 03:14 41.73655 -73.12398 25650 ft 445 kts 351°
2026-05-05 03:14 41.76736 -73.12862 25956 ft 445 kts 349°
2026-05-05 03:15 41.79813 -73.13414 26177 ft 447 kts 348°
2026-05-05 03:15 41.82897 -73.13996 26459 ft 449 kts 348°
2026-05-05 03:15 41.86001 -73.14576 26733 ft 450 kts 348°
2026-05-05 03:15 41.89108 -73.15143 27011 ft 452 kts 349°
2026-05-05 03:16 41.92236 -73.15697 27268 ft 454 kts 349°
2026-05-05 03:16 41.95372 -73.16241 27514 ft 456 kts 349°
2026-05-05 03:16 41.98527 -73.16782 27773 ft 457 kts 349°
2026-05-05 03:16 42.01686 -73.17320 28018 ft 459 kts 349°
2026-05-05 03:17 42.04862 -73.17861 28255 ft 461 kts 349°
2026-05-05 03:17 42.08048 -73.18404 28501 ft 462 kts 349°
2026-05-05 03:17 42.11242 -73.18950 28718 ft 464 kts 349°
2026-05-05 03:17 42.14445 -73.19498 29003 ft 464 kts 349°
2026-05-05 03:18 42.17643 -73.20046 29382 ft 463 kts 349°
2026-05-05 03:18 42.20835 -73.20593 29785 ft 461 kts 349°
2026-05-05 03:18 42.24013 -73.21139 30094 ft 460 kts 349°
2026-05-05 03:18 42.27182 -73.21684 30408 ft 458 kts 349°
2026-05-05 03:19 42.33479 -73.22769 31091 ft 454 kts 349°
2026-05-05 03:19 42.36610 -73.23309 31451 ft 452 kts 349°
2026-05-05 03:19 42.39724 -73.23847 31815 ft 450 kts 349°
2026-05-05 03:20 42.42825 -73.24384 32160 ft 448 kts 348°
2026-05-05 03:20 42.45911 -73.24919 32477 ft 446 kts 348°
2026-05-05 03:20 42.48989 -73.25453 32776 ft 445 kts 348°
2026-05-05 03:20 42.52055 -73.25979 33071 ft 444 kts 350°
2026-05-05 03:21 42.55146 -73.26204 33339 ft 447 kts 356°
2026-05-05 03:21 42.58254 -73.25889 33583 ft 450 kts
2026-05-05 03:21 42.61283 -73.24978 33852 ft 454 kts 12°
2026-05-05 03:21 42.64309 -73.23526 34043 ft 457 kts 16°
2026-05-05 03:22 42.67231 -73.21945 34193 ft 459 kts 17°
2026-05-05 03:22 42.70174 -73.20255 34345 ft 460 kts 18°
2026-05-05 03:22 42.73107 -73.18530 34496 ft 461 kts 18°
2026-05-05 03:22 42.76054 -73.16788 34663 ft 461 kts 18°
2026-05-05 03:23 42.78998 -73.15054 34818 ft 462 kts 18°
2026-05-05 03:23 42.81953 -73.13323 34940 ft 463 kts 18°
2026-05-05 03:23 42.84914 -73.11598 35070 ft 463 kts 18°
2026-05-05 03:23 42.87883 -73.09873 35228 ft 464 kts 18°
2026-05-05 03:24 42.90847 -73.08152 35400 ft 464 kts 18°
2026-05-05 03:24 42.93817 -73.06428 35535 ft 465 kts 18°
2026-05-05 03:24 42.96790 -73.04701 35679 ft 465 kts 18°
2026-05-05 03:24 42.99775 -73.02966 35789 ft 466 kts 18°
2026-05-05 03:25 43.02757 -73.01230 35950 ft 466 kts 18°
2026-05-05 03:25 43.05742 -72.99489 36020 ft 467 kts 18°
2026-05-05 03:25 43.08733 -72.97744 36179 ft 467 kts 18°
2026-05-05 03:25 43.11716 -72.95999 36319 ft 467 kts 18°
2026-05-05 03:26 43.14706 -72.94250 36486 ft 467 kts 18°
2026-05-05 03:26 43.17697 -72.92498 36606 ft 467 kts 18°
2026-05-05 03:26 43.20688 -72.90744 36721 ft 468 kts 18°
2026-05-05 03:26 43.23683 -72.88987 36824 ft 469 kts 18°
2026-05-05 03:27 43.29688 -72.85456 36824 ft 470 kts 18°
2026-05-05 03:27 43.35649 -72.81941 36822 ft 469 kts 18°
2026-05-05 03:28 43.41646 -72.78400 36822 ft 469 kts 18°
2026-05-05 03:28 43.47641 -72.74853 36825 ft 469 kts 18°
2026-05-05 03:29 43.53643 -72.71294 36820 ft 469 kts 18°
2026-05-05 03:29 43.59639 -72.67730 36814 ft 470 kts 18°
2026-05-05 03:30 43.65637 -72.64157 36817 ft 470 kts 18°
2026-05-05 03:30 43.71638 -72.60574 36822 ft 470 kts 18°
2026-05-05 03:31 43.77643 -72.56983 36815 ft 470 kts 18°
2026-05-05 03:31 43.83644 -72.53386 36813 ft 470 kts 18°
2026-05-05 03:32 43.89646 -72.49781 36817 ft 470 kts 18°
2026-05-05 03:32 43.95652 -72.46164 36827 ft 471 kts 18°
2026-05-05 03:33 44.01662 -72.42535 36855 ft 471 kts 18°
2026-05-05 03:33 44.07627 -72.38926 36837 ft 471 kts 18°
2026-05-05 03:34 44.13633 -72.35286 36837 ft 471 kts 18°
2026-05-05 03:34 44.19640 -72.31637 36851 ft 471 kts 18°
2026-05-05 03:35 44.25644 -72.27983 36826 ft 471 kts 18°
2026-05-05 03:35 44.31658 -72.24312 36799 ft 471 kts 18°
2026-05-05 03:36 44.37666 -72.20636 36814 ft 471 kts 18°
2026-05-05 03:36 44.43682 -72.16948 36808 ft 473 kts 18°
2026-05-05 03:37 44.49712 -72.13244 36812 ft 473 kts 18°
2026-05-05 03:37 44.55743 -72.09529 36837 ft 473 kts 18°
2026-05-05 03:38 44.61779 -72.05803 36813 ft 474 kts 18°
2026-05-05 03:38 44.67818 -72.02068 36854 ft 475 kts 18°
2026-05-05 03:39 44.70840 -72.00195 36988 ft 475 kts 18°
2026-05-05 03:39 44.73861 -71.98320 37142 ft 475 kts 18°
2026-05-05 03:39 44.76888 -71.96441 37250 ft 475 kts 18°
2026-05-05 03:39 44.79873 -71.94585 37355 ft 476 kts 18°
2026-05-05 03:40 44.85935 -71.90810 37556 ft 477 kts 19°
2026-05-05 03:40 44.88972 -71.88914 37675 ft 477 kts 19°
2026-05-05 03:40 44.92010 -71.87016 37822 ft 478 kts 19°
2026-05-05 03:41 44.95048 -71.85116 37946 ft 478 kts 19°
2026-05-05 03:41 44.98090 -71.83211 38023 ft 479 kts 19°
2026-05-05 03:41 45.04188 -71.79387 38178 ft 480 kts 19°
2026-05-05 03:42 45.07238 -71.77470 38283 ft 480 kts 19°
2026-05-05 03:42 45.10295 -71.75547 38394 ft 480 kts 19°
2026-05-05 03:42 45.13347 -71.73625 38497 ft 480 kts 19°
2026-05-05 03:42 45.16399 -71.71700 38566 ft 480 kts 19°
2026-05-05 03:43 45.22503 -71.67844 38716 ft 480 kts 19°
2026-05-05 03:43 45.28609 -71.63977 38762 ft 481 kts 20°
2026-05-05 03:44 45.34705 -71.60107 38761 ft 480 kts 20°
2026-05-05 03:44 45.40754 -71.56260 38762 ft 479 kts 20°
2026-05-05 03:45 45.46886 -71.52349 38764 ft 480 kts 20°
2026-05-05 03:45 45.52933 -71.48484 38764 ft 480 kts 20°
2026-05-05 03:46 45.59020 -71.44584 38774 ft 480 kts 20°
2026-05-05 03:46 45.65105 -71.40676 38795 ft 480 kts 20°
2026-05-05 03:47 45.71194 -71.36758 38790 ft 480 kts 20°
2026-05-05 03:47 45.77273 -71.32834 38788 ft 479 kts 20°
2026-05-05 03:48 45.83357 -71.28897 38797 ft 480 kts 20°
2026-05-05 03:48 45.89435 -71.24956 38787 ft 479 kts 20°
2026-05-05 03:49 45.95510 -71.21007 38786 ft 479 kts 20°
2026-05-05 03:49 46.01579 -71.17053 38784 ft 479 kts 20°
2026-05-05 03:50 46.07652 -71.13086 38787 ft 479 kts 20°
2026-05-05 03:50 46.13721 -71.09114 38788 ft 479 kts 20°
2026-05-05 03:51 46.19787 -71.05132 38785 ft 479 kts 20°
2026-05-05 03:51 46.25861 -71.01136 38783 ft 480 kts 20°
2026-05-05 03:52 46.31899 -70.97154 38785 ft 481 kts 20°
2026-05-05 03:52 46.37982 -70.93132 38785 ft 481 kts 20°
2026-05-05 03:53 46.44064 -70.89100 38785 ft 481 kts 20°
2026-05-05 03:53 46.50158 -70.85051 38782 ft 482 kts 21°
2026-05-05 03:54 46.56249 -70.80994 38777 ft 482 kts 21°
2026-05-05 03:54 46.62346 -70.76922 38782 ft 482 kts 21°
2026-05-05 03:55 46.68452 -70.72835 38775 ft 483 kts 21°
2026-05-05 03:55 46.74558 -70.68738 38769 ft 483 kts 21°
2026-05-05 03:56 46.80663 -70.64630 38776 ft 483 kts 21°
2026-05-05 03:56 46.86777 -70.60507 38767 ft 484 kts 21°
2026-05-05 03:57 46.92890 -70.56373 38766 ft 484 kts 21°
2026-05-05 03:57 46.99006 -70.52227 38760 ft 484 kts 21°
2026-05-05 03:58 47.05121 -70.48072 38760 ft 484 kts 21°
2026-05-05 03:58 47.10199 -70.44613 38757 ft 484 kts 21°
2026-05-05 03:59 47.16307 -70.40443 38755 ft 484 kts 21°
2026-05-05 03:59 47.22418 -70.36260 38752 ft 484 kts 21°
2026-05-05 04:00 47.28523 -70.32070 38753 ft 484 kts 21°
2026-05-05 04:00 47.34631 -70.27868 38753 ft 484 kts 21°
2026-05-05 04:01 47.40729 -70.23662 38753 ft 484 kts 21°
2026-05-05 04:01 47.46822 -70.19448 38746 ft 483 kts 21°
2026-05-05 04:02 47.52907 -70.15229 38744 ft 483 kts 22°
2026-05-05 04:02 47.58992 -70.10999 38746 ft 483 kts 22°
2026-05-05 04:03 47.65077 -70.06759 38744 ft 484 kts 22°
2026-05-05 04:03 47.71127 -70.02533 38745 ft 484 kts 22°
2026-05-05 04:04 47.77211 -69.98270 38753 ft 484 kts 22°
2026-05-05 04:04 47.83293 -69.93999 38744 ft 483 kts 22°
2026-05-05 04:05 47.89375 -69.89716 38741 ft 483 kts 22°
2026-05-05 04:05 47.95449 -69.85427 38744 ft 483 kts 22°
2026-05-05 04:06 48.01522 -69.81130 38736 ft 482 kts 22°
2026-05-05 04:06 48.07576 -69.76834 38734 ft 482 kts 22°
2026-05-05 04:07 48.13631 -69.72525 38733 ft 482 kts 22°
2026-05-05 04:07 48.19679 -69.68209 38731 ft 481 kts 23°
2026-05-05 04:08 48.25721 -69.63885 38729 ft 481 kts 23°
2026-05-05 04:08 48.31753 -69.59560 38730 ft 481 kts 23°
2026-05-05 04:09 48.37789 -69.55219 38735 ft 481 kts 23°
2026-05-05 04:09 48.43818 -69.50873 38727 ft 481 kts 23°
2026-05-05 04:10 48.49850 -69.46512 38733 ft 481 kts 23°
2026-05-05 04:10 48.55538 -69.41205 38741 ft 485 kts 39°
2026-05-05 04:11 48.60071 -69.33645 38741 ft 487 kts 50°
2026-05-05 04:11 48.64145 -69.25438 38720 ft 489 kts 52°
2026-05-05 04:12 48.68135 -69.17100 38717 ft 489 kts 52°
2026-05-05 04:12 48.72105 -69.08829 38735 ft 489 kts 52°
2026-05-05 04:13 48.76117 -69.00514 38720 ft 489 kts 52°
2026-05-05 04:13 48.80133 -68.92189 38722 ft 489 kts 52°
2026-05-05 04:14 48.84143 -68.83854 38717 ft 489 kts 52°
2026-05-05 04:14 48.88145 -68.75508 38721 ft 489 kts 52°
2026-05-05 04:15 48.92144 -68.67141 38719 ft 489 kts 52°
2026-05-05 04:15 48.96132 -68.58768 38712 ft 489 kts 53°
2026-05-05 04:16 49.00118 -68.50374 38712 ft 489 kts 53°
2026-05-05 04:16 49.04095 -68.41973 38704 ft 489 kts 53°
2026-05-05 04:17 49.08066 -68.33559 38699 ft 489 kts 53°
2026-05-05 04:17 49.12052 -68.25150 38705 ft 488 kts 50°
2026-05-05 04:18 49.16800 -68.17818 38702 ft 485 kts 40°
2026-05-05 04:18 49.21888 -68.11053 38704 ft 485 kts 38°
2026-05-05 04:19 49.27041 -68.04387 38701 ft 484 kts 39°
2026-05-05 04:19 49.32168 -67.97731 38697 ft 483 kts 39°
2026-05-05 04:20 49.37280 -67.91042 38697 ft 483 kts 39°
2026-05-05 04:20 49.42345 -67.84381 38700 ft 483 kts 39°
2026-05-05 04:21 49.47443 -67.77655 38690 ft 484 kts 39°
2026-05-05 04:21 49.52547 -67.70902 38691 ft 484 kts 39°
2026-05-05 04:22 49.57644 -67.64140 38693 ft 484 kts 39°
2026-05-05 04:22 49.62742 -67.57358 38684 ft 484 kts 39°
2026-05-05 04:23 49.67838 -67.50560 38684 ft 485 kts 39°
2026-05-05 04:23 49.72936 -67.43738 38680 ft 485 kts 40°
2026-05-05 04:24 49.78028 -67.36906 38669 ft 485 kts 40°
2026-05-05 04:25 49.85664 -67.26622 38664 ft 485 kts 40°
2026-05-05 04:25 49.90753 -67.19744 38663 ft 485 kts 40°
2026-05-05 04:26 49.95834 -67.12856 38657 ft 485 kts 40°
2026-05-05 04:26 50.00912 -67.05952 38660 ft 485 kts 40°
2026-05-05 04:27 50.05988 -66.99030 38658 ft 485 kts 40°
2026-05-05 04:27 50.11056 -66.92101 38653 ft 485 kts 40°
2026-05-05 04:28 50.16124 -66.85150 38647 ft 485 kts 40°
2026-05-05 04:28 50.21149 -66.78238 38639 ft 485 kts 40°
2026-05-05 04:29 50.26205 -66.71263 38635 ft 485 kts 40°
2026-05-05 04:29 50.31251 -66.64280 38631 ft 485 kts 40°
2026-05-05 04:30 50.36298 -66.57276 38631 ft 485 kts 40°
2026-05-05 04:30 50.41338 -66.50260 38624 ft 485 kts 40°
2026-05-05 04:31 50.46380 -66.43222 38624 ft 485 kts 41°
2026-05-05 04:31 50.51424 -66.36161 38625 ft 486 kts 41°
2026-05-05 04:32 50.56458 -66.29091 38622 ft 485 kts 41°
2026-05-05 04:32 50.61461 -66.22044 38614 ft 486 kts 41°
2026-05-05 04:33 50.66491 -66.14937 38611 ft 486 kts 41°
2026-05-05 04:33 50.71522 -66.07809 38613 ft 486 kts 41°
2026-05-05 04:34 50.76545 -66.00669 38610 ft 486 kts 40°
2026-05-05 04:34 50.81571 -65.93505 38610 ft 487 kts 41°
2026-05-05 04:35 50.86603 -65.86309 38605 ft 487 kts 41°
2026-05-05 04:35 50.91625 -65.79107 38600 ft 487 kts 41°
2026-05-05 04:36 50.96647 -65.71880 38598 ft 487 kts 41°
2026-05-05 04:36 51.01667 -65.64636 38581 ft 488 kts 41°
2026-05-05 04:37 51.06689 -65.57369 38576 ft 489 kts 41°
2026-05-05 04:37 51.11708 -65.50084 38581 ft 488 kts 41°
2026-05-05 04:38 51.16722 -65.42780 38569 ft 489 kts 41°
2026-05-05 04:38 51.21742 -65.35445 38560 ft 490 kts 41°
2026-05-05 04:39 51.26771 -65.28076 38558 ft 491 kts 41°
2026-05-05 04:39 51.31798 -65.20688 38548 ft 491 kts 41°
2026-05-05 04:40 51.36819 -65.13286 38537 ft 490 kts 42°
2026-05-05 04:40 51.41817 -65.05891 38536 ft 489 kts 42°
2026-05-05 04:41 51.46805 -64.98490 38529 ft 489 kts 42°
2026-05-05 04:41 51.51789 -64.91071 38528 ft 489 kts 43°
2026-05-05 04:42 51.56735 -64.83687 38523 ft 488 kts 43°
2026-05-05 04:42 51.61693 -64.76261 38510 ft 487 kts 43°
2026-05-05 04:43 51.66649 -64.68815 38511 ft 487 kts 43°
2026-05-05 04:43 51.71595 -64.61360 38509 ft 487 kts 43°
2026-05-05 04:44 51.76535 -64.53891 38485 ft 487 kts 43°
2026-05-05 04:44 51.81471 -64.46405 38486 ft 486 kts 43°
2026-05-05 04:45 51.86401 -64.38905 38472 ft 486 kts 43°
2026-05-05 04:45 51.91322 -64.31393 38469 ft 486 kts 44°
2026-05-05 04:46 51.96229 -64.23881 38468 ft 484 kts 44°
2026-05-05 04:46 52.01113 -64.16378 38455 ft 484 kts 44°
2026-05-05 04:47 52.05996 -64.08854 38450 ft 484 kts 44°
2026-05-05 04:47 52.10871 -64.01319 38449 ft 483 kts 44°
2026-05-05 04:48 52.15733 -63.93780 38443 ft 482 kts 44°
2026-05-05 04:48 52.20576 -63.86247 38434 ft 481 kts 44°
2026-05-05 04:49 52.25413 -63.78699 38425 ft 481 kts 44°
2026-05-05 04:49 52.30217 -63.71178 38414 ft 481 kts 44°
2026-05-05 04:50 52.35049 -63.63591 38413 ft 481 kts 44°
2026-05-05 04:50 52.39873 -63.55991 38411 ft 482 kts 44°
2026-05-05 04:51 52.44693 -63.48372 38402 ft 482 kts 45°
2026-05-05 04:51 52.48731 -63.41971 38400 ft 482 kts 45°
2026-05-05 04:52 52.53507 -63.34378 38393 ft 481 kts 45°
2026-05-05 04:52 52.58309 -63.26719 38383 ft 481 kts 45°
2026-05-05 04:53 52.63100 -63.19054 38378 ft 481 kts 45°
2026-05-05 04:53 52.67888 -63.11368 38368 ft 481 kts 45°
2026-05-05 04:54 52.72672 -63.03664 38376 ft 480 kts 45°
2026-05-05 04:54 52.77446 -62.95949 38364 ft 480 kts 45°
2026-05-05 04:55 52.82211 -62.88227 38362 ft 480 kts 45°
2026-05-05 04:55 52.86974 -62.80481 38359 ft 480 kts 46°
2026-05-05 04:56 52.91732 -62.72719 38358 ft 480 kts 46°
2026-05-05 04:56 52.96480 -62.64946 38357 ft 480 kts 45°
2026-05-05 04:57 53.01229 -62.57146 38347 ft 481 kts 45°
2026-05-05 04:57 53.05992 -62.49300 38349 ft 482 kts 46°
2026-05-05 04:58 53.10713 -62.41497 38342 ft 481 kts 46°
2026-05-05 04:58 53.15454 -62.33634 38336 ft 481 kts 46°
2026-05-05 04:59 53.20183 -62.25765 38337 ft 481 kts 46°
2026-05-05 04:59 53.24912 -62.17870 38331 ft 481 kts 47°
2026-05-05 05:00 53.29633 -62.09964 38331 ft 480 kts 46°
2026-05-05 05:00 53.34337 -62.02059 38331 ft 479 kts 46°
2026-05-05 05:01 53.39036 -61.94136 38316 ft 479 kts 47°
2026-05-05 05:01 53.43726 -61.86204 38315 ft 479 kts 47°
2026-05-05 05:02 53.48412 -61.78248 38310 ft 479 kts 46°
2026-05-05 05:02 53.53082 -61.70296 38312 ft 478 kts 47°
2026-05-05 05:03 53.57747 -61.62324 38306 ft 478 kts 47°
2026-05-05 05:03 53.62402 -61.54343 38303 ft 478 kts 47°
2026-05-05 05:04 53.67055 -61.46339 38307 ft 478 kts 47°
2026-05-05 05:04 53.71696 -61.38329 38297 ft 477 kts 47°
2026-05-05 05:05 53.76302 -61.30352 38294 ft 477 kts 47°
2026-05-05 05:05 53.80929 -61.22312 38289 ft 477 kts 47°
2026-05-05 05:06 53.85551 -61.14254 38284 ft 477 kts 47°
2026-05-05 05:06 53.90162 -61.06188 38284 ft 476 kts 47°
2026-05-05 05:07 53.94757 -60.98122 38282 ft 475 kts 47°
2026-05-05 05:07 53.99347 -60.90037 38283 ft 475 kts 47°
2026-05-05 05:08 54.03939 -60.81922 38283 ft 477 kts 47°
2026-05-05 05:08 54.08533 -60.73776 38275 ft 476 kts 47°
2026-05-05 05:09 54.13108 -60.65636 38275 ft 475 kts 48°
2026-05-05 05:09 54.17678 -60.57478 38270 ft 475 kts 48°
2026-05-05 05:10 54.22238 -60.49308 38264 ft 475 kts 48°
2026-05-05 05:10 54.26795 -60.41116 38264 ft 475 kts 48°
2026-05-05 05:11 54.31340 -60.32919 38263 ft 475 kts 48°
2026-05-05 05:11 54.35881 -60.24699 38261 ft 475 kts 48°
2026-05-05 05:12 54.40414 -60.16466 38259 ft 475 kts 48°
2026-05-05 05:12 54.44943 -60.08212 38254 ft 474 kts 49°
2026-05-05 05:13 54.49433 -60.00001 38261 ft 475 kts 49°
2026-05-05 05:13 54.53948 -59.91714 38262 ft 475 kts 49°
2026-05-05 05:14 54.58462 -59.83403 38262 ft 475 kts 49°
2026-05-05 05:14 54.62964 -59.75083 38248 ft 474 kts 49°
2026-05-05 05:15 54.67461 -59.66744 38261 ft 475 kts 49°
2026-05-05 05:15 54.71957 -59.58378 38263 ft 475 kts 49°
2026-05-05 05:16 54.76442 -59.50002 38263 ft 475 kts 49°
2026-05-05 05:16 54.80926 -59.41601 38264 ft 475 kts 49°
2026-05-05 05:17 54.85403 -59.33181 38265 ft 474 kts 49°
2026-05-05 05:17 54.89870 -59.24752 38270 ft 474 kts 49°
2026-05-05 05:18 54.94330 -59.16305 38270 ft 474 kts 49°
2026-05-05 05:18 54.98788 -59.07831 38271 ft 474 kts 49°
2026-05-05 05:19 55.03239 -58.99342 38267 ft 475 kts 50°
2026-05-05 05:19 55.07689 -58.90824 38270 ft 475 kts 50°
2026-05-05 05:20 55.12127 -58.82300 38274 ft 474 kts 50°
2026-05-05 05:20 55.16558 -58.73759 38274 ft 474 kts 50°
2026-05-05 05:21 55.20956 -58.65249 38280 ft 474 kts 50°
2026-05-05 05:21 55.25377 -58.56666 38282 ft 475 kts 50°
2026-05-05 05:22 55.29832 -58.47985 38282 ft 475 kts 50°
2026-05-05 05:22 55.34219 -58.39406 38293 ft 475 kts 50°
2026-05-05 05:23 55.38633 -58.30743 38289 ft 475 kts 50°
2026-05-05 05:23 55.43038 -58.22066 38296 ft 476 kts 51°
2026-05-05 05:24 55.47450 -58.13344 38293 ft 477 kts 51°
2026-05-05 05:24 55.51865 -58.04584 38295 ft 478 kts 51°
2026-05-05 05:25 55.56270 -57.95812 38303 ft 477 kts 51°
2026-05-05 05:25 55.60672 -57.87015 38289 ft 477 kts 51°
2026-05-05 05:26 55.65059 -57.78214 38306 ft 477 kts 51°
2026-05-05 05:26 55.69440 -57.69394 38306 ft 476 kts 51°
2026-05-05 05:27 55.73812 -57.60556 38313 ft 476 kts 51°
2026-05-05 05:27 55.80352 -57.47278 38308 ft 476 kts 52°
2026-05-05 05:28 55.84686 -57.38440 38316 ft 473 kts 52°
2026-05-05 05:28 55.88999 -57.29611 38325 ft 472 kts 52°
2026-05-05 05:29 55.93271 -57.20832 38325 ft 472 kts 52°
2026-05-05 05:29 55.97570 -57.11965 38328 ft 472 kts 52°
2026-05-05 05:30 56.01857 -57.03091 38329 ft 472 kts 52°
2026-05-05 05:30 56.06164 -56.94198 38337 ft 473 kts 52°
2026-05-05 05:31 56.10494 -56.85314 38342 ft 474 kts 52°
2026-05-05 05:31 56.14824 -56.76407 38342 ft 474 kts 52°
2026-05-05 05:32 56.19141 -56.67484 38336 ft 473 kts 52°
2026-05-05 05:32 56.23452 -56.58531 38348 ft 474 kts 52°
2026-05-05 05:33 56.27752 -56.49565 38353 ft 473 kts 52°
2026-05-05 05:33 56.32049 -56.40574 38353 ft 473 kts 53°
2026-05-05 05:34 56.36335 -56.31571 38365 ft 473 kts 53°
2026-05-05 05:34 56.40612 -56.22555 38363 ft 473 kts 53°
2026-05-05 05:35 56.44879 -56.13526 38373 ft 472 kts 53°
2026-05-05 05:35 56.49135 -56.04483 38380 ft 472 kts 53°
2026-05-05 05:36 56.53382 -55.95427 38381 ft 472 kts 53°
2026-05-05 05:36 56.57627 -55.86342 38376 ft 472 kts 53°
2026-05-05 05:37 56.61859 -55.77249 38390 ft 472 kts 54°
2026-05-05 05:37 56.66082 -55.68140 38396 ft 471 kts 54°
2026-05-05 05:38 56.70300 -55.59007 38396 ft 471 kts 54°
2026-05-05 05:38 56.74510 -55.49857 38406 ft 471 kts 54°
2026-05-05 05:39 56.78682 -55.40755 38406 ft 471 kts 54°
2026-05-05 05:39 56.82875 -55.31571 38416 ft 471 kts 54°
2026-05-05 05:40 56.87065 -55.22360 38418 ft 471 kts 54°
2026-05-05 05:40 56.91243 -55.13139 38417 ft 471 kts 54°
2026-05-05 05:41 56.95417 -55.03891 38401 ft 471 kts 54°
2026-05-05 05:41 56.98905 -54.96137 38425 ft 471 kts 54°
2026-05-05 05:42 57.03063 -54.86859 38437 ft 470 kts 54°
2026-05-05 05:42 57.07211 -54.77565 38437 ft 471 kts 55°
2026-05-05 05:43 57.11369 -54.68212 38445 ft 472 kts 55°
2026-05-05 05:43 57.15521 -54.58840 38435 ft 472 kts 55°
2026-05-05 05:44 57.19631 -54.49527 38459 ft 471 kts 55°
2026-05-05 05:44 57.23759 -54.40134 38460 ft 471 kts 55°
2026-05-05 05:45 57.27875 -54.30729 38471 ft 471 kts 56°
2026-05-05 05:45 57.31989 -54.21295 38468 ft 471 kts 56°
2026-05-05 05:46 57.36088 -54.11857 38475 ft 469 kts 56°
2026-05-05 05:46 57.40167 -54.02430 38492 ft 468 kts 56°
2026-05-05 05:47 57.44228 -53.93003 38488 ft 468 kts 56°
2026-05-05 05:47 57.48286 -53.83546 38515 ft 468 kts 56°
2026-05-05 05:48 57.52334 -53.74075 38491 ft 468 kts 56°
2026-05-05 05:48 57.56364 -53.64615 38521 ft 464 kts 56°
2026-05-05 05:49 57.60354 -53.55209 38520 ft 462 kts 56°
2026-05-05 05:49 57.64335 -53.45782 38537 ft 462 kts 57°
2026-05-05 05:50 57.68308 -53.36335 38537 ft 462 kts 57°
2026-05-05 05:50 57.72245 -53.26941 38532 ft 461 kts 57°
2026-05-05 05:51 57.76173 -53.17538 38541 ft 456 kts 57°
2026-05-05 05:51 57.80065 -53.08178 38557 ft 455 kts 57°
2026-05-05 05:52 57.83950 -52.98793 38558 ft 455 kts 57°
2026-05-05 05:52 57.87830 -52.89385 38574 ft 455 kts 57°
2026-05-05 05:53 57.91699 -52.79971 38570 ft 454 kts 57°
2026-05-05 05:53 57.95542 -52.70589 38586 ft 451 kts 58°
2026-05-05 05:54 57.99360 -52.61222 38586 ft 451 kts 58°
2026-05-05 05:54 58.03169 -52.51839 38596 ft 451 kts 58°
2026-05-05 05:55 58.06971 -52.42437 38582 ft 451 kts 58°
2026-05-05 05:55 58.10771 -52.33007 38604 ft 451 kts 58°
2026-05-05 05:56 58.14555 -52.23577 38605 ft 450 kts 58°
2026-05-05 05:56 58.18331 -52.14131 38621 ft 449 kts 58°
2026-05-05 05:57 58.22096 -52.04673 38621 ft 449 kts 59°
2026-05-05 05:57 58.25830 -51.95256 38634 ft 449 kts 59°
2026-05-05 05:58 58.29578 -51.85767 38635 ft 449 kts 59°
2026-05-05 05:58 58.33319 -51.76257 38650 ft 449 kts 59°
2026-05-05 05:59 58.37056 -51.66721 38650 ft 449 kts 59°
2026-05-05 05:59 58.40781 -51.57177 38664 ft 449 kts 59°
2026-05-05 06:00 58.44500 -51.47609 38666 ft 449 kts 59°
2026-05-05 06:00 58.48211 -51.38021 38678 ft 449 kts 59°
2026-05-05 06:01 58.51910 -51.28427 38680 ft 449 kts 59°
2026-05-05 06:01 58.55608 -51.18797 38690 ft 449 kts 59°
2026-05-05 06:02 58.59296 -51.09156 38692 ft 449 kts 59°
2026-05-05 06:02 58.62978 -50.99488 38705 ft 449 kts 59°
2026-05-05 06:03 58.66649 -50.89811 38702 ft 448 kts 59°
2026-05-05 06:03 58.70315 -50.80107 38724 ft 448 kts 59°
2026-05-05 06:04 58.73970 -50.70394 38724 ft 448 kts 59°
2026-05-05 06:04 58.77619 -50.60655 38722 ft 448 kts 60°
2026-05-05 06:05 58.81258 -50.50905 38723 ft 448 kts 60°
2026-05-05 06:05 58.84889 -50.41132 38737 ft 449 kts 60°
2026-05-05 06:06 58.88501 -50.31373 38749 ft 449 kts 60°
2026-05-05 06:06 58.92130 -50.21527 38752 ft 449 kts 60°
2026-05-05 06:07 58.95748 -50.11671 38769 ft 449 kts 60°
2026-05-05 06:07 58.99359 -50.01795 38770 ft 449 kts 60°
2026-05-05 06:08 59.02983 -49.91912 38768 ft 449 kts 59°
2026-05-05 06:08 59.06618 -49.82019 38791 ft 450 kts 60°
2026-05-05 06:09 59.10254 -49.72097 38793 ft 450 kts 60°
2026-05-05 06:09 59.13876 -49.62156 38810 ft 450 kts 59°
2026-05-05 06:10 59.17486 -49.52201 38810 ft 450 kts 60°
2026-05-05 06:10 59.21089 -49.42223 38818 ft 450 kts 59°
2026-05-05 06:11 59.24679 -49.32240 38823 ft 449 kts 60°
2026-05-05 06:11 59.28260 -49.22240 38844 ft 449 kts 60°
2026-05-05 06:12 59.31826 -49.12239 38844 ft 448 kts 61°
2026-05-05 06:12 59.35386 -49.02209 38860 ft 448 kts 61°
2026-05-05 06:13 59.38913 -48.92233 38862 ft 448 kts 59°
2026-05-05 06:13 59.42449 -48.82186 38878 ft 447 kts 61°
2026-05-05 06:14 59.45975 -48.72126 38880 ft 447 kts 59°
2026-05-05 06:14 59.49498 -48.62035 38899 ft 447 kts 61°
2026-05-05 06:15 59.53008 -48.51932 38904 ft 447 kts 60°
2026-05-05 06:15 59.56506 -48.41823 38907 ft 447 kts 61°
2026-05-05 06:16 59.60018 -48.31625 38915 ft 451 kts 59°
2026-05-05 06:16 59.63550 -48.21330 38932 ft 453 kts 61°
2026-05-05 06:17 59.67074 -48.11016 38930 ft 453 kts 62°
2026-05-05 06:17 59.70590 -48.00676 38949 ft 452 kts 60°
2026-05-05 06:18 59.74095 -47.90322 38940 ft 453 kts 60°
2026-05-05 06:18 59.77610 -47.79894 38972 ft 456 kts 60°
2026-05-05 06:19 59.81104 -47.69481 38970 ft 456 kts 61°
2026-05-05 06:19 59.84614 -47.58975 38980 ft 456 kts 59°
2026-05-05 06:20 59.88118 -47.48440 38987 ft 456 kts 61°
2026-05-05 06:20 59.91610 -47.37890 39002 ft 456 kts 58°
2026-05-05 06:21 59.95102 -47.27299 39004 ft 457 kts 59°
2026-05-05 06:21 59.98584 -47.16681 39015 ft 457 kts 59°
2026-05-05 06:22 60.02058 -47.06042 39015 ft 457 kts 59°
2026-05-05 06:22 60.05525 -46.95374 39023 ft 457 kts 59°
2026-05-05 06:23 60.08984 -46.84686 39018 ft 457 kts 58°
2026-05-05 06:23 60.12434 -46.73969 39034 ft 458 kts 58°
2026-05-05 06:24 60.15882 -46.63215 39034 ft 458 kts 58°
2026-05-05 06:24 60.19325 -46.52431 39042 ft 458 kts 58°
2026-05-05 06:25 60.22754 -46.41636 39043 ft 458 kts 59°
2026-05-05 06:25 60.26173 -46.30823 39047 ft 458 kts 58°
2026-05-05 06:26 60.29602 -46.19924 39057 ft 463 kts 58°
2026-05-05 06:26 60.33054 -46.08905 39064 ft 465 kts 58°
2026-05-05 06:27 60.38221 -45.92314 39061 ft 465 kts 58°
2026-05-05 06:28 60.41625 -45.81314 39072 ft 465 kts 58°
2026-05-05 06:28 60.45046 -45.70208 39072 ft 465 kts 58°
2026-05-05 06:29 60.48455 -45.59090 39083 ft 464 kts 58°
2026-05-05 06:29 60.51856 -45.47942 39082 ft 464 kts 58°
2026-05-05 06:30 60.55244 -45.36782 39083 ft 464 kts 58°
2026-05-05 06:30 60.58626 -45.25589 39083 ft 464 kts 58°
2026-05-05 06:31 60.62001 -45.14362 39097 ft 467 kts 58°
2026-05-05 06:31 60.65391 -45.03034 39122 ft 469 kts 58°
2026-05-05 06:32 60.68210 -44.93571 39144 ft 469 kts 58°
2026-05-05 06:32 60.71587 -44.82179 39142 ft 469 kts 58°
2026-05-05 06:33 60.74958 -44.70753 39172 ft 469 kts 58°
2026-05-05 06:33 60.78316 -44.59314 39173 ft 469 kts 57°
2026-05-05 06:34 60.81674 -44.47820 39213 ft 471 kts 57°
2026-05-05 06:34 60.85025 -44.36284 39210 ft 471 kts 58°
2026-05-05 06:35 60.88367 -44.24726 39255 ft 471 kts 57°
2026-05-05 06:35 60.91702 -44.13140 39256 ft 471 kts 58°
2026-05-05 06:36 60.95025 -44.01527 39294 ft 470 kts 58°
2026-05-05 06:36 60.98329 -43.89925 39292 ft 469 kts 58°
2026-05-05 06:37 61.01620 -43.78316 39327 ft 469 kts 58°
2026-05-05 06:37 61.04902 -43.66673 39351 ft 469 kts 58°
2026-05-05 06:38 61.08170 -43.55020 39366 ft 469 kts 58°
2026-05-05 06:38 61.11429 -43.43338 39370 ft 470 kts 58°
2026-05-05 06:39 61.14693 -43.31581 39372 ft 472 kts 58°
2026-05-05 06:39 61.17953 -43.19779 39374 ft 472 kts 58°
2026-05-05 06:40 61.21178 -43.08040 39383 ft 472 kts 58°
2026-05-05 06:40 61.24414 -42.96198 39384 ft 472 kts 58°
2026-05-05 06:41 61.27642 -42.84322 39386 ft 472 kts 58°
2026-05-05 06:41 61.30868 -42.72392 39384 ft 473 kts 58°
2026-05-05 06:42 61.34085 -42.60431 39388 ft 474 kts 58°
2026-05-05 06:42 61.37291 -42.48445 39388 ft 474 kts 58°
2026-05-05 06:43 61.40490 -42.36425 39392 ft 474 kts 58°
2026-05-05 06:43 61.43677 -42.24387 39388 ft 474 kts 58°
2026-05-05 06:44 61.46856 -42.12311 39392 ft 474 kts 58°
2026-05-05 06:44 61.50028 -42.00196 39396 ft 474 kts 58°
2026-05-05 06:45 61.53189 -41.88058 39393 ft 474 kts 58°
2026-05-05 06:45 61.56339 -41.75900 39387 ft 475 kts 58°
2026-05-05 06:46 61.59480 -41.63705 39392 ft 474 kts 58°
2026-05-05 06:46 61.62605 -41.51508 39389 ft 474 kts 58°
2026-05-05 06:47 61.65720 -41.39281 39388 ft 474 kts 58°
2026-05-05 06:47 61.68822 -41.27037 39384 ft 474 kts 58°
2026-05-05 06:48 61.71897 -41.14834 39377 ft 474 kts 58°
2026-05-05 06:48 61.74979 -41.02537 39375 ft 474 kts 58°
2026-05-05 06:49 61.78050 -40.90213 39358 ft 474 kts 58°
2026-05-05 06:49 61.81114 -40.77848 39358 ft 475 kts 58°
2026-05-05 06:50 61.84165 -40.65467 39356 ft 475 kts 58°
2026-05-05 06:50 61.87207 -40.53052 39358 ft 475 kts 59°
2026-05-05 06:51 61.90238 -40.40610 39350 ft 475 kts 59°
2026-05-05 06:51 61.93265 -40.28117 39353 ft 477 kts 59°
2026-05-05 06:52 61.96288 -40.15567 39347 ft 477 kts 59°
2026-05-05 06:52 61.99297 -40.03001 39347 ft 477 kts 59°
2026-05-05 06:53 62.02063 -39.90138 39345 ft 479 kts 63°
2026-05-05 06:53 62.04565 -39.76958 39341 ft 480 kts 64°
2026-05-05 06:54 62.07037 -39.63736 39332 ft 480 kts 64°
2026-05-05 06:54 62.09529 -39.50539 39330 ft 480 kts 64°
2026-05-05 06:55 62.12030 -39.37328 39335 ft 480 kts 64°
2026-05-05 06:55 62.14521 -39.24109 39336 ft 480 kts 64°
2026-05-05 06:56 62.16982 -39.10952 39343 ft 480 kts 64°
2026-05-05 06:56 62.19455 -38.97644 39331 ft 481 kts 64°
2026-05-05 06:57 62.21915 -38.84302 39333 ft 482 kts 65°
2026-05-05 06:57 62.24362 -38.70938 39333 ft 482 kts 65°
2026-05-05 06:58 62.26799 -38.57542 39320 ft 482 kts 65°
2026-05-05 06:58 62.29223 -38.44121 39345 ft 482 kts 65°
2026-05-05 06:59 62.31636 -38.30679 39323 ft 482 kts 65°
2026-05-05 06:59 62.34038 -38.17192 39319 ft 483 kts 65°
2026-05-05 07:00 62.36425 -38.03695 39326 ft 483 kts 65°
2026-05-05 07:00 62.38802 -37.90159 39326 ft 483 kts 65°
2026-05-05 07:01 62.41165 -37.76609 39323 ft 483 kts 65°
2026-05-05 07:01 62.43522 -37.63004 39302 ft 485 kts 65°
2026-05-05 07:02 62.45867 -37.49360 39317 ft 485 kts 65°
2026-05-05 07:02 62.48200 -37.35688 39306 ft 484 kts 65°
2026-05-05 07:03 62.50517 -37.22009 39321 ft 484 kts 65°
2026-05-05 07:03 62.52821 -37.08307 39306 ft 485 kts 66°
2026-05-05 07:04 62.55120 -36.94544 39316 ft 487 kts 65°
2026-05-05 07:04 62.57403 -36.80769 39317 ft 489 kts 66°
2026-05-05 07:05 62.59690 -36.66860 39314 ft 489 kts 66°
2026-05-05 07:05 62.61962 -36.52934 39304 ft 489 kts 66°
2026-05-05 07:06 62.64223 -36.38973 39309 ft 490 kts 66°
2026-05-05 07:06 62.66471 -36.24988 39310 ft 491 kts 66°
2026-05-05 07:07 62.68717 -36.10912 39309 ft 493 kts 66°
2026-05-05 07:07 62.70948 -35.96808 39308 ft 493 kts 66°
2026-05-05 07:08 62.73167 -35.82672 39307 ft 493 kts 66°
2026-05-05 07:08 62.75371 -35.68520 39311 ft 493 kts 66°
2026-05-05 07:09 62.77565 -35.54322 39311 ft 494 kts 66°
2026-05-05 07:09 62.79750 -35.40068 39300 ft 495 kts 66°
2026-05-05 07:10 62.81923 -35.25777 39299 ft 496 kts 67°
2026-05-05 07:10 62.84069 -35.11545 39303 ft 496 kts 67°
2026-05-05 07:11 62.86214 -34.97204 39304 ft 496 kts 67°
2026-05-05 07:11 62.88347 -34.82822 39304 ft 497 kts 67°
2026-05-05 07:12 62.90475 -34.68366 39301 ft 499 kts 67°
2026-05-05 07:12 62.92591 -34.53859 39306 ft 499 kts 67°
2026-05-05 07:13 62.94693 -34.39317 39295 ft 499 kts 68°
2026-05-05 07:13 62.96780 -34.24764 39295 ft 500 kts 68°
2026-05-05 07:14 62.98856 -34.10162 39302 ft 501 kts 68°
2026-05-05 07:14 63.00928 -33.95469 39298 ft 503 kts 68°
2026-05-05 07:15 63.02986 -33.80738 39298 ft 504 kts 68°
2026-05-05 07:15 63.05030 -33.65968 39291 ft 504 kts 68°
2026-05-05 07:16 63.07058 -33.51187 39297 ft 504 kts 68°
2026-05-05 07:16 63.09072 -33.36376 39306 ft 505 kts 68°
2026-05-05 07:17 63.11076 -33.21505 39293 ft 505 kts 68°
2026-05-05 07:17 63.13066 -33.06602 39295 ft 505 kts 68°
2026-05-05 07:18 63.15039 -32.91688 39295 ft 506 kts 68°
2026-05-05 07:18 63.16996 -32.76750 39295 ft 506 kts 69°
2026-05-05 07:19 63.18928 -32.61876 39294 ft 506 kts 69°
2026-05-05 07:19 63.20855 -32.46889 39291 ft 506 kts 69°
2026-05-05 07:20 63.22769 -32.31867 39292 ft 506 kts 69°
2026-05-05 07:20 63.24666 -32.16834 39276 ft 506 kts 69°
2026-05-05 07:21 63.26546 -32.01783 39282 ft 505 kts 69°
2026-05-05 07:21 63.28408 -31.86739 39286 ft 505 kts 69°
2026-05-05 07:22 63.29945 -31.74206 39287 ft 505 kts 69°
2026-05-05 07:22 63.31791 -31.59016 39289 ft 506 kts 69°
2026-05-05 07:23 63.33610 -31.43893 39291 ft 506 kts 70°
2026-05-05 07:23 63.35400 -31.28860 39294 ft 506 kts 70°
2026-05-05 07:24 63.37188 -31.13693 39300 ft 506 kts 70°
2026-05-05 07:24 63.38957 -30.98533 39287 ft 505 kts 70°
2026-05-05 07:25 63.40710 -30.83355 39290 ft 505 kts 70°
2026-05-05 07:25 63.42448 -30.68144 39289 ft 505 kts 70°
2026-05-05 07:26 63.44171 -30.52911 39289 ft 506 kts 70°
2026-05-05 07:26 63.45876 -30.37668 39297 ft 505 kts 71°
2026-05-05 07:27 63.47562 -30.22435 39293 ft 505 kts 71°
2026-05-05 07:27 63.49233 -30.07179 39295 ft 505 kts 71°
2026-05-05 07:28 63.50286 -29.91555 39291 ft 510 kts 79°
2026-05-05 07:28 63.50885 -29.75685 39290 ft 512 kts 81°
2026-05-05 07:29 63.51381 -29.59885 39300 ft 512 kts 82°
2026-05-05 07:29 63.51861 -29.44005 39290 ft 510 kts 82°
2026-05-05 07:30 63.52337 -29.28149 39291 ft 510 kts 82°
2026-05-05 07:30 63.53029 -29.04338 39289 ft 510 kts 82°
2026-05-05 07:31 63.53469 -28.88462 39287 ft 510 kts 82°
2026-05-05 07:31 63.53891 -28.72567 39294 ft 511 kts 83°
2026-05-05 07:32 63.54295 -28.56672 39289 ft 511 kts 83°
2026-05-05 07:32 63.54682 -28.40761 39289 ft 511 kts 83°
2026-05-05 07:33 63.55051 -28.24832 39293 ft 511 kts 83°
2026-05-05 07:33 63.55402 -28.08910 39293 ft 511 kts 83°
2026-05-05 07:34 63.55737 -27.92966 39311 ft 512 kts 83°
2026-05-05 07:34 63.56055 -27.76984 39292 ft 513 kts 84°
2026-05-05 07:35 63.56354 -27.60985 39293 ft 513 kts 84°
2026-05-05 07:35 63.56634 -27.45088 39299 ft 513 kts 84°
2026-05-05 07:36 63.56898 -27.29079 39294 ft 514 kts 84°
2026-05-05 07:36 63.57144 -27.13052 39328 ft 514 kts 84°
2026-05-05 07:37 63.57373 -26.97016 39298 ft 514 kts 84°
2026-05-05 07:37 63.57584 -26.80983 39298 ft 514 kts 85°
2026-05-05 07:38 63.57777 -26.64943 39303 ft 514 kts 85°
2026-05-05 07:38 63.57952 -26.48886 39303 ft 514 kts 85°
2026-05-05 07:39 63.58109 -26.32837 39309 ft 514 kts 85°
2026-05-05 07:39 63.58249 -26.16761 39296 ft 515 kts 85°
2026-05-05 07:40 63.58371 -26.00682 39314 ft 515 kts 85°
2026-05-05 07:40 63.58474 -25.84585 39309 ft 515 kts 85°
2026-05-05 07:41 63.58559 -25.68525 39315 ft 514 kts 86°
2026-05-05 07:41 63.58627 -25.52461 39309 ft 514 kts 86°
2026-05-05 07:42 63.58677 -25.36403 39330 ft 515 kts 86°
2026-05-05 07:42 63.58709 -25.20308 39318 ft 516 kts 86°
2026-05-05 07:43 63.58723 -25.04170 39314 ft 516 kts 86°
2026-05-05 07:43 63.58718 -24.88047 39314 ft 516 kts 86°
2026-05-05 07:44 63.58695 -24.71908 39316 ft 517 kts 87°
2026-05-05 07:44 63.58655 -24.55781 39317 ft 517 kts 87°
2026-05-05 07:45 63.58597 -24.39759 39317 ft 517 kts 87°
2026-05-05 07:45 63.58520 -24.23614 39317 ft 517 kts 87°
2026-05-05 07:46 63.58425 -24.07477 39301 ft 517 kts 87°
2026-05-05 07:46 63.58312 -23.91352 39312 ft 516 kts 88°
2026-05-05 07:47 63.58181 -23.75255 39333 ft 516 kts 88°
2026-05-05 07:47 63.58033 -23.59155 39319 ft 516 kts 88°
2026-05-05 07:48 63.57866 -23.43042 39317 ft 517 kts 88°
2026-05-05 07:48 63.57681 -23.26908 39316 ft 517 kts 88°
2026-05-05 07:49 63.57477 -23.10774 39317 ft 517 kts 88°
2026-05-05 07:49 63.57256 -22.94659 39320 ft 517 kts 88°
2026-05-05 07:50 63.57016 -22.78532 39321 ft 516 kts 89°
2026-05-05 07:50 63.56759 -22.62435 39314 ft 516 kts 89°
2026-05-05 07:51 63.56484 -22.46327 39314 ft 516 kts 89°
2026-05-05 07:51 63.56190 -22.30234 39297 ft 516 kts 89°
2026-05-05 07:52 63.55879 -22.14146 39313 ft 515 kts 89°
2026-05-05 07:52 63.55550 -21.98094 39320 ft 515 kts 89°
2026-05-05 07:53 63.55206 -21.82144 39306 ft 515 kts 90°
2026-05-05 07:53 63.54842 -21.66094 39306 ft 515 kts 90°
2026-05-05 07:54 63.54459 -21.50034 39303 ft 516 kts 90°
2026-05-05 07:54 63.54059 -21.33990 39308 ft 516 kts 90°
2026-05-05 07:55 63.53640 -21.17946 39328 ft 516 kts 90°
2026-05-05 07:55 63.53204 -21.01894 39304 ft 516 kts 90°
2026-05-05 07:56 63.52749 -20.85853 39301 ft 516 kts 90°
2026-05-05 07:56 63.52277 -20.69821 39305 ft 516 kts 91°
2026-05-05 07:57 63.51786 -20.53777 39275 ft 516 kts 91°
2026-05-05 07:57 63.51278 -20.37752 39261 ft 516 kts 91°
2026-05-05 07:58 63.50752 -20.21733 39268 ft 515 kts 91°
2026-05-05 07:58 63.50208 -20.05729 39272 ft 515 kts 91°
2026-05-05 07:59 63.49779 -19.89741 39275 ft 514 kts 89°
2026-05-05 07:59 63.49546 -19.73763 39279 ft 514 kts 88°
2026-05-05 08:00 63.49320 -19.57760 39295 ft 516 kts 89°
2026-05-05 08:00 63.49050 -19.41655 39293 ft 519 kts 89°
2026-05-05 08:01 63.48744 -19.25541 39292 ft 518 kts 89°
2026-05-05 08:01 63.48418 -19.09553 39292 ft 518 kts 89°
2026-05-05 08:02 63.48073 -18.93447 39272 ft 518 kts 90°
2026-05-05 08:02 63.47711 -18.77360 39272 ft 518 kts 90°
2026-05-05 08:03 63.47332 -18.61270 39272 ft 518 kts 90°
2026-05-05 08:03 63.46933 -18.45157 39264 ft 519 kts 90°
2026-05-05 08:04 63.46516 -18.29052 39259 ft 519 kts 90°
2026-05-05 08:04 63.46081 -18.12932 39258 ft 519 kts 91°
2026-05-05 08:05 63.45628 -17.96825 39245 ft 519 kts 91°
2026-05-05 08:05 63.45157 -17.80727 39257 ft 519 kts 91°
2026-05-05 08:06 63.44668 -17.64631 39240 ft 519 kts 91°
2026-05-05 08:06 63.44161 -17.48557 39240 ft 519 kts 91°
2026-05-05 08:07 63.43636 -17.32474 39237 ft 519 kts 91°
2026-05-05 08:07 63.43092 -17.16396 39232 ft 519 kts 92°
2026-05-05 08:08 63.42535 -17.00442 39245 ft 519 kts 92°
2026-05-05 08:08 63.41956 -16.84388 39235 ft 519 kts 92°
2026-05-05 08:09 63.41360 -16.68346 39235 ft 519 kts 92°
2026-05-05 08:09 63.40744 -16.52294 39235 ft 519 kts 92°
2026-05-05 08:10 63.40111 -16.36262 39231 ft 519 kts 93°
2026-05-05 08:10 63.39460 -16.20230 39235 ft 519 kts 93°
2026-05-05 08:11 63.38792 -16.04219 39234 ft 519 kts 93°
2026-05-05 08:11 63.38105 -15.88201 39232 ft 519 kts 93°
2026-05-05 08:12 63.37400 -15.72199 39232 ft 519 kts 94°
2026-05-05 08:12 63.36801 -15.58907 39231 ft 519 kts 94°
2026-05-05 08:13 63.36063 -15.42908 39262 ft 519 kts 94°
2026-05-05 08:13 63.35308 -15.26930 39235 ft 519 kts 94°
2026-05-05 08:14 63.34535 -15.10962 39235 ft 519 kts 94°
2026-05-05 08:14 63.33744 -14.94987 39238 ft 519 kts 94°
2026-05-05 08:15 63.32935 -14.79020 39238 ft 519 kts 94°
2026-05-05 08:15 63.32108 -14.63071 39238 ft 519 kts 95°
2026-05-05 08:16 63.31264 -14.47128 39217 ft 519 kts 95°
2026-05-05 08:16 63.30399 -14.31165 39238 ft 520 kts 95°
2026-05-05 08:17 63.29517 -14.15202 39238 ft 520 kts 95°
2026-05-05 08:17 63.28623 -13.99367 39238 ft 520 kts 95°
2026-05-05 08:18 63.27705 -13.83436 39238 ft 520 kts 96°
2026-05-05 08:18 63.26770 -13.67508 39234 ft 521 kts 96°
2026-05-05 08:19 63.25814 -13.51552 39232 ft 521 kts 96°
2026-05-05 08:19 63.24840 -13.35594 39224 ft 521 kts 96°
2026-05-05 08:20 63.23849 -13.19661 39224 ft 521 kts 96°
2026-05-05 08:20 63.22839 -13.03728 39222 ft 521 kts 96°
2026-05-05 08:21 63.21812 -12.87817 39225 ft 522 kts 97°
2026-05-05 08:21 63.20767 -12.71904 39219 ft 522 kts 97°
2026-05-05 08:22 63.19703 -12.55996 39216 ft 522 kts 97°
2026-05-05 08:22 63.18620 -12.40083 39210 ft 523 kts 97°
2026-05-05 08:23 63.17519 -12.24171 39213 ft 523 kts 97°
2026-05-05 08:23 63.16398 -12.08246 39215 ft 523 kts 97°
2026-05-05 08:24 63.15260 -11.92342 39213 ft 524 kts 97°
2026-05-05 08:24 63.14103 -11.76426 39207 ft 524 kts 98°
2026-05-05 08:25 63.12927 -11.60521 39205 ft 524 kts 98°
2026-05-05 08:25 63.11743 -11.44748 39194 ft 524 kts 98°
2026-05-05 08:26 63.10534 -11.28887 39198 ft 524 kts 98°
2026-05-05 08:26 63.09306 -11.13040 39190 ft 524 kts 98°
2026-05-05 08:27 63.08060 -10.97192 39189 ft 524 kts 98°
2026-05-05 08:27 63.06798 -10.81369 39180 ft 524 kts 98°
2026-05-05 08:28 63.05516 -10.65547 39185 ft 524 kts 99°
2026-05-05 08:28 63.04217 -10.49738 39159 ft 524 kts 99°
2026-05-05 08:29 63.02900 -10.33939 39176 ft 525 kts 99°
2026-05-05 08:30 63.00888 -10.10221 39173 ft 525 kts 99°
2026-05-05 08:30 62.99593 -9.94408 39173 ft 525 kts 97°
2026-05-05 08:31 62.98582 -9.78609 39187 ft 525 kts 96°
2026-05-05 08:31 62.97620 -9.62719 39156 ft 524 kts 96°
2026-05-05 08:32 62.96617 -9.46850 39155 ft 524 kts 96°
2026-05-05 08:32 62.95566 -9.30904 39144 ft 524 kts 96°
2026-05-05 08:33 62.94504 -9.15187 39150 ft 524 kts 97°
2026-05-05 08:33 62.93417 -8.99372 39155 ft 524 kts 97°
2026-05-05 08:34 62.92314 -8.83568 39143 ft 523 kts 97°
2026-05-05 08:34 62.91195 -8.67804 39137 ft 523 kts 97°
2026-05-05 08:35 62.90058 -8.52038 39138 ft 523 kts 97°
2026-05-05 08:35 62.88904 -8.36297 39127 ft 523 kts 97°
2026-05-05 08:36 62.87732 -8.20565 39123 ft 524 kts 97°
2026-05-05 08:36 62.86540 -8.04800 39121 ft 525 kts 98°
2026-05-05 08:37 62.85329 -7.89047 39125 ft 525 kts 98°
2026-05-05 08:37 62.84101 -7.73297 39122 ft 525 kts 98°
2026-05-05 08:38 62.82855 -7.57575 39123 ft 525 kts 98°
2026-05-05 08:38 62.81600 -7.41958 39120 ft 524 kts 98°
2026-05-05 08:39 62.80322 -7.26281 39116 ft 524 kts 98°
2026-05-05 08:39 62.79027 -7.10630 39110 ft 524 kts 98°
2026-05-05 08:40 62.77714 -6.94991 39113 ft 524 kts 99°
2026-05-05 08:40 62.76383 -6.79353 39100 ft 524 kts 99°
2026-05-05 08:41 62.75037 -6.63745 39106 ft 523 kts 99°
2026-05-05 08:41 62.73674 -6.48167 39087 ft 522 kts 99°
2026-05-05 08:42 62.72296 -6.32636 39099 ft 522 kts 99°
2026-05-05 08:42 62.70901 -6.17108 39076 ft 522 kts 99°
2026-05-05 08:43 62.69490 -6.01611 39067 ft 522 kts 99°
2026-05-05 08:43 62.68060 -5.86106 39081 ft 523 kts 100°
2026-05-05 08:44 62.66612 -5.70606 39074 ft 522 kts 100°
2026-05-05 08:44 62.65149 -5.55145 39070 ft 522 kts 100°
2026-05-05 08:45 62.63668 -5.39686 39074 ft 522 kts 100°
2026-05-05 08:45 62.62169 -5.24243 39068 ft 522 kts 100°
2026-05-05 08:46 62.60656 -5.08827 39072 ft 522 kts 101°
2026-05-05 08:46 62.59127 -4.93449 39063 ft 521 kts 101°
2026-05-05 08:47 62.57580 -4.78083 39059 ft 521 kts 101°
2026-05-05 08:47 62.56019 -4.62744 39053 ft 521 kts 101°
2026-05-05 08:48 62.54449 -4.47511 39059 ft 521 kts 101°
2026-05-05 08:48 62.52854 -4.32205 39049 ft 521 kts 102°
2026-05-05 08:49 62.51245 -4.16937 39049 ft 520 kts 102°
2026-05-05 08:49 62.49619 -4.01694 39037 ft 520 kts 102°
2026-05-05 08:50 62.47976 -3.86456 39036 ft 520 kts 102°
2026-05-05 08:50 62.46317 -3.71243 39041 ft 521 kts 102°
2026-05-05 08:51 62.44638 -3.56013 39034 ft 521 kts 102°
2026-05-05 08:51 62.42944 -3.40816 39026 ft 521 kts 102°
2026-05-05 08:52 62.41232 -3.25626 39037 ft 521 kts 103°
2026-05-05 08:52 62.39506 -3.10466 39025 ft 521 kts 103°
2026-05-05 08:53 62.37761 -2.95308 39018 ft 521 kts 103°
2026-05-05 08:53 62.36001 -2.80183 39018 ft 521 kts 103°
2026-05-05 08:54 62.34236 -2.65172 39020 ft 520 kts 103°
2026-05-05 08:54 62.32445 -2.50091 39005 ft 520 kts 103°
2026-05-05 08:55 62.30637 -2.35027 39007 ft 520 kts 104°
2026-05-05 08:55 62.28812 -2.19969 38997 ft 520 kts 104°
2026-05-05 08:56 62.26972 -2.04940 39005 ft 520 kts 104°
2026-05-05 08:56 62.25114 -1.89919 38993 ft 520 kts 104°
2026-05-05 08:57 62.23239 -1.74916 38995 ft 520 kts 104°
2026-05-05 08:57 62.21350 -1.59944 38962 ft 520 kts 104°
2026-05-05 08:58 62.19446 -1.44993 38987 ft 520 kts 105°
2026-05-05 08:58 62.17525 -1.30057 38979 ft 521 kts 105°
2026-05-05 08:59 62.15585 -1.15123 38975 ft 521 kts 105°
2026-05-05 08:59 62.13629 -1.00203 38976 ft 521 kts 105°
2026-05-05 09:00 62.11659 -0.85321 38977 ft 521 kts 105°
2026-05-05 09:00 62.09671 -0.70438 38973 ft 521 kts 105°
2026-05-05 09:01 62.07681 -0.55683 38962 ft 521 kts 106°
2026-05-05 09:01 62.05660 -0.40842 38962 ft 521 kts 106°
2026-05-05 09:02 62.03626 -0.26034 38971 ft 521 kts 106°
2026-05-05 09:02 62.01575 -0.11235 38967 ft 521 kts 106°
2026-05-05 09:03 61.99713 0.03640 38973 ft 520 kts 102°
2026-05-05 09:03 61.98228 0.18710 38967 ft 520 kts 101°
2026-05-05 09:04 61.96804 0.33794 38957 ft 520 kts 101°
2026-05-05 09:04 61.95373 0.48868 38960 ft 521 kts 101°
2026-05-05 09:05 61.93915 0.63936 38952 ft 521 kts 101°
2026-05-05 09:05 61.92687 0.76436 38958 ft 520 kts 102°
2026-05-05 09:06 61.91193 0.91453 38930 ft 520 kts 102°
2026-05-05 09:06 61.89682 1.06478 38944 ft 521 kts 102°
2026-05-05 09:07 61.88152 1.21512 38939 ft 521 kts 102°
2026-05-05 09:07 61.86618 1.36416 38928 ft 521 kts 102°
2026-05-05 09:08 61.85058 1.51402 38924 ft 521 kts 102°
2026-05-05 09:08 61.83480 1.66378 38924 ft 521 kts 103°
2026-05-05 09:09 61.81888 1.81327 38916 ft 521 kts 103°
2026-05-05 09:09 61.80279 1.96261 38917 ft 521 kts 103°
2026-05-05 09:10 61.78653 2.11190 38904 ft 521 kts 103°
2026-05-05 09:10 61.77012 2.26094 38905 ft 521 kts 103°
2026-05-05 09:11 61.75355 2.40972 38899 ft 521 kts 104°
2026-05-05 09:11 61.73682 2.55845 38898 ft 520 kts 104°
2026-05-05 09:12 61.71994 2.70686 38895 ft 520 kts 104°
2026-05-05 09:12 61.70288 2.85523 38909 ft 521 kts 104°
2026-05-05 09:13 61.68568 3.00340 38915 ft 521 kts 104°
2026-05-05 09:13 61.66829 3.15152 38903 ft 521 kts 104°
2026-05-05 09:14 61.65073 3.29960 38902 ft 521 kts 105°
2026-05-05 09:14 61.63314 3.44651 38905 ft 521 kts 105°
2026-05-05 09:15 61.61528 3.59411 38907 ft 521 kts 105°
2026-05-05 09:15 61.59726 3.74150 38906 ft 521 kts 105°
2026-05-05 09:16 61.57908 3.88882 38904 ft 521 kts 105°
2026-05-05 09:16 61.56075 4.03583 38923 ft 521 kts 105°
2026-05-05 09:17 61.54227 4.18267 38923 ft 521 kts 106°
2026-05-05 09:17 61.52361 4.32949 38922 ft 521 kts 106°
2026-05-05 09:18 61.50479 4.47616 38920 ft 522 kts 106°
2026-05-05 09:18 61.48579 4.62280 38932 ft 522 kts 106°
2026-05-05 09:19 61.46665 4.76915 38934 ft 522 kts 107°
2026-05-05 09:19 61.44734 4.91536 38939 ft 522 kts 107°
2026-05-05 09:20 61.42788 5.06140 38939 ft 522 kts 107°
2026-05-05 09:20 61.40826 5.20724 38942 ft 522 kts 107°
2026-05-05 09:21 61.38848 5.35293 38947 ft 522 kts 107°
2026-05-05 09:21 61.36855 5.49845 38951 ft 522 kts 107°
2026-05-05 09:22 61.34848 5.64364 38910 ft 522 kts 108°
2026-05-05 09:22 61.32820 5.78897 38915 ft 523 kts 108°
2026-05-05 09:23 61.30773 5.93442 38914 ft 523 kts 108°
2026-05-05 09:23 61.28727 6.07855 38919 ft 523 kts 108°
2026-05-05 09:24 61.26652 6.22347 38913 ft 523 kts 108°
2026-05-05 09:24 61.24560 6.36822 38919 ft 523 kts 109°
2026-05-05 09:25 61.22453 6.51276 38910 ft 523 kts 109°
2026-05-05 09:25 61.20331 6.65713 38906 ft 523 kts 109°
2026-05-05 09:26 61.18194 6.80122 38906 ft 523 kts 109°
2026-05-05 09:26 61.16043 6.94510 38890 ft 523 kts 109°
2026-05-05 09:27 61.13872 7.08904 38885 ft 525 kts 109°
2026-05-05 09:27 61.11677 7.23339 38889 ft 526 kts 109°
2026-05-05 09:28 61.09469 7.37749 38875 ft 525 kts 110°
2026-05-05 09:28 61.07247 7.52124 38902 ft 525 kts 110°
2026-05-05 09:29 61.05006 7.66490 38896 ft 526 kts 110°
2026-05-05 09:29 61.02744 7.80881 38892 ft 528 kts 110°
2026-05-05 09:30 61.00478 7.95181 38904 ft 528 kts 110°
2026-05-05 09:30 60.98182 8.09556 38906 ft 528 kts 110°